Regional Weather Roundup
Issued by NWS

Home | Current Version | Previous Version | Text Only | Print | Product List | Glossary Off
Versions: 1 2 3 4 5 6 7 8 9 10 11 12 13 14 15 16 17 18 19 20 21 22 23 24 25 26 27 28 29 30 31 32 33 34 35 36 37 38 39 40 41 42 43 44 45 46 47 48 49 50

000
ASUS43 KLOT 220208
RWRIL

ILLINOIS REGIONAL WEATHER ROUNDUP
NATIONAL WEATHER SERVICE CHICAGO/ROMEOVILLE IL
900 PM CDT THU SEP 21 2017

NOTE: "FAIR" INDICATES FEW OR NO CLOUDS BELOW 12,000 FEET WITH NO
SIGNIFICANT WEATHER AND/OR OBSTRUCTIONS TO VISIBILITY.

* THESE STATIONS ARE NOT UNDER NWS QUALITY CONTROL. THEY ALSO MAY NOT
  REPORT WEATHER SUCH AS PRECIPITATION OR FOG.

ILZ001-002-007-009-015-016-024-220300-
NORTHWEST ILLINOIS

CITY           SKY/WX    TMP DP  RH WIND       PRES   REMARKS
MOLINE         CLEAR     77  69  76 SE6       29.95R
STERLING*      CLOUDY    78  69  73 SE5       29.98R HX  80
SAVANNA*       CLEAR     73  68  85 SE6       29.96R
$$

ILZ003-004-008-010-011-017-018-220300-
NORTH CENTRAL ILLINOIS

CITY           SKY/WX    TMP DP  RH WIND       PRES   REMARKS
ROCKFORD       MOCLDY    76  68  76 SE5       30.00R
FREEPORT*      CLOUDY    72  66  83 SE5       30.00R
ROCHELLE*      CLOUDY    73  69  86 SE6       30.00R
DE KALB*       CLOUDY    80  69  70 SE8       30.02R HX  82
PERU*          PTCLDY    79  69  70 S7        30.00R HX  82
$$

ILZ005-006-012>014-019>023-220300-
NORTHEAST ILLINOIS

CITY           SKY/WX    TMP DP  RH WIND       PRES   REMARKS
CHICAGO-OHARE  MOCLDY    81  69  67 SE7       30.00R HX  84
CHICAGO-MIDWAY MOCLDY    84  71  65 SE5       30.00S HX  89
AURORA         PTCLDY    78  71  79 SE6       30.01R HX  80
LANSING*       CLEAR     76  71  84 CALM      30.01S
JOLIET*        PTCLDY    80  73  80 SE3       30.01R HX  83
WAUKEGAN       PTCLDY    71  69  93 SE3       30.01R FOG
DUPAGE AIRPORT CLOUDY    83  71  67 SE7       30.00S HX  87
KANKAKEE*      CLOUDY    77  71  82 SE5       30.03R
WHEELING       PTCLDY    80  71  74 CALM      30.02R HX  84
MORRIS*        PTCLDY    77  72  83 SE6       29.99S
ROMEOVILLE*    CLEAR     77  71  80 SE7       30.01S
NORTHERLY ISL    N/A     73  69  87 S1          N/A
$$

LMZ740>746-220300-
SOUTHERN LAKE MICHIGAN

STATION/POSITION SKY/WX   TEMP    WIND        PRES    VSBY  WAVE
                          AIR SEA DIR/SP/G                  HT/PER
                          (F)     (DEG/KT/KT) (MB)    (MI)  (FT/S)
SOUTHERN BUOY              72 70   80/  8/  8 1016.2R         0
WILMETTE HARBOR            73 71  160/  6/  6   N/A           1/ 2
HARRISON CRIB              76     170/  6/  6   N/A
BURNHAM HARBOR             73                   N/A
CALUMET HARBOR             76      50/  1/  2 1015.7R
BURNS HARBOR               83     180/  5/  7 1016.9R
MICHIGAN CITY              81     140/  6/  7   N/A
MICHIGAN CITY 6N           76 71  150/  4/  6   N/A           0
ST. JOSEPH                 76 71  160/  4/  6 1016.2          0
$$

ILZ025>027-034>036-040-047-049-050-058-095>099-220300-
WEST-CENTRAL ILLINOIS

CITY           SKY/WX    TMP DP  RH WIND       PRES   REMARKS
QUINCY         CLEAR     77  70  79 SE7       29.95R
GALESBURG*     CLOUDY    76  70  80 SE5       29.98R
MACOMB*        CLOUDY    74  71  88 SE6       29.98S
JACKSONVILLE*  CLOUDY    78  70  76 SE7       29.98R HX  80
PITTSFIELD*    CLOUDY    77  71  81 SE5       29.98R
$$

ILZ028>032-037-038-041>044-048-051>054-059>061-220300-
CENTRAL ILLINOIS

CITY           SKY/WX    TMP DP  RH WIND       PRES   REMARKS
PONTIAC        PTCLDY    76  72  89 SE6       30.01R
BLOOMINGTON    CLEAR     78  69  73 S3        30.03R HX  80
DECATUR        CLOUDY    77  68  73 S3        30.02R
PEORIA         CLOUDY    80  71  74 S3        29.99R HX  84
LACON*         CLOUDY    80  70  71 SE3       29.98R HAZE    HX  83
LINCOLN*       PTCLDY    76  70  80 CALM      30.00R
SPRINGFIELD    CLOUDY    81  71  71 SE7       30.00R HX  85
TAYLORVILLE    PTCLDY    74  69  84 SE3       30.01R
$$

ILZ033-039-045-046-055>057-062-063-220300-
EAST-CENTRAL ILLINOIS

CITY           SKY/WX    TMP DP  RH WIND       PRES   REMARKS
CHAMPAIGN      CLOUDY    81  66  60 SW5       30.03R HX  83
RANTOUL*       CLOUDY    81  72  74 CALM      30.02R HX  85
MATTOON        PTCLDY    80  68  66 S5        30.02R HX  83
PARIS*         PTCLDY    75  68  79 S3        30.04S
$$

ILZ079-100>102-220300-
SOUTHWEST ILLINOIS

CITY           SKY/WX    TMP DP  RH WIND       PRES   REMARKS
ALTON          CLEAR     75  70  83 SE8       29.99R
BELLEVILLE     CLEAR     78  66  66 VRB5      30.01R HX  80
CAHOKIA*       CLOUDY    81  68  64 SE6       29.97R HX  84
SPARTA*        MOCLDY    79  70  73 SE3       30.00R HX  82
$$

ILZ064>066-069>071-074>076-080>082-084>086-088>090-092>094-220300-
SOUTH-CENTRAL ILLINOIS

CITY           SKY/WX    TMP DP  RH WIND       PRES   REMARKS
CARBONDALE     CLOUDY    73  73 100 CALM      30.00R
CAIRO*         CLEAR     73  72  95 CALM      30.00R
EFFINGHAM*     CLEAR     75  68  78 CALM      30.04R
MARION         CLOUDY    77  72  83 CALM      30.02R
MT. VERNON       N/A     70  69  97 CALM      30.02R
CENTRALIA*     PTCLDY    73  69  90 CALM      30.00R
SALEM*         PTCLDY    74  69  84 E3        30.01R
METROPOLIS*    CLEAR     75  71  87 CALM      30.01R
$$

ILZ067-068-072-073-078-083-087-091-220300-
SOUTHEAST ILLINOIS

CITY           SKY/WX    TMP DP  RH WIND       PRES   REMARKS
LAWRENCEVILLE  CLEAR     77  71  82 SE6       30.03R
FLORA*         CLEAR     80  68  67 CALM      30.02R HX  82
FAIRFIELD*     CLEAR     74  67  78 CALM      30.02R
HARRISBURG*    CLEAR     74  69  82 CALM      30.01R
ROBINSON*      CLEAR     72  69  90 CALM      30.04R
CARMI*         CLEAR     74  70  89 CALM      30.02R
$$

ABBREVIATIONS USED IN REMARKS
   TC - TEMPERATURE IN CELSIUS
  WCI - WIND CHILL INDEX
   HX - HEAT INDEX
  VSB - VISIBILITY
$$




USA.gov is the U.S. government's official web portal to all federal, state and local government web resources and services.